TimeEST,TemperatureF,Dew PointF,Humidity,Sea Level PressureIn,VisibilityMPH,Wind Direction,Wind SpeedMPH,Gust SpeedMPH,PrecipitationIn,Events,Conditions,WindDirDegrees,DateUTC
12:54 AM,34.0,18.0,52,29.82,10.0,NNW,17.3,-,N/A,,Clear,330,2013-02-17 05:54:00
1:54 AM,32.0,18.0,56,29.82,10.0,WNW,13.8,19.6,N/A,,Clear,300,2013-02-17 06:54:00
2:54 AM,30.9,19.0,61,29.83,10.0,WNW,11.5,-,N/A,,Clear,300,2013-02-17 07:54:00
3:54 AM,30.0,18.0,61,29.83,10.0,WNW,10.4,-,N/A,,Clear,300,2013-02-17 08:54:00
4:54 AM,30.9,19.0,61,29.84,10.0,NNW,13.8,-,N/A,,Clear,330,2013-02-17 09:54:00
5:54 AM,28.9,17.1,61,29.86,10.0,WNW,9.2,-,N/A,,Clear,290,2013-02-17 10:54:00
6:54 AM,28.0,16.0,61,29.87,10.0,WNW,10.4,-,N/A,,Clear,300,2013-02-17 11:54:00
7:54 AM,28.0,12.0,51,29.89,10.0,WNW,11.5,17.3,N/A,,Clear,290,2013-02-17 12:54:00
8:54 AM,30.0,12.0,47,29.91,10.0,NW,9.2,24.2,N/A,,Clear,310,2013-02-17 13:54:00
9:54 AM,30.0,10.0,43,29.92,10.0,NW,19.6,31.1,N/A,,Clear,310,2013-02-17 14:54:00
10:54 AM,32.0,10.0,40,29.93,10.0,WNW,16.1,26.5,N/A,,Partly Cloudy,300,2013-02-17 15:54:00
11:54 AM,32.0,10.9,42,29.94,10.0,NW,19.6,28.8,N/A,,Scattered Clouds,310,2013-02-17 16:54:00
12:54 PM,32.0,10.0,40,29.93,10.0,NW,9.2,28.8,N/A,,Overcast,310,2013-02-17 17:54:00
1:54 PM,30.9,12.9,47,29.94,10.0,WNW,16.1,25.3,N/A,,Mostly Cloudy,300,2013-02-17 18:54:00
2:54 PM,30.9,15.1,52,29.96,10.0,WNW,11.5,21.9,0.00,,Partly Cloudy,290,2013-02-17 19:54:00
3:54 PM,30.9,12.9,47,29.97,10.0,WNW,17.3,25.3,N/A,,Mostly Cloudy,300,2013-02-17 20:54:00
4:54 PM,30.0,10.9,45,30.00,10.0,WNW,13.8,25.3,N/A,,Overcast,290,2013-02-17 21:54:00
5:54 PM,28.0,12.9,53,30.04,10.0,WNW,13.8,23.0,N/A,,Clear,290,2013-02-17 22:54:00
6:54 PM,28.0,10.0,47,30.07,10.0,WNW,16.1,24.2,N/A,,Clear,290,2013-02-17 23:54:00
7:54 PM,28.0,9.0,45,30.10,10.0,WNW,17.3,26.5,N/A,,Clear,290,2013-02-18 00:54:00
8:54 PM,28.0,10.0,47,30.12,10.0,WNW,15.0,29.9,N/A,,Clear,300,2013-02-18 01:54:00
9:54 PM,27.0,10.0,49,30.16,10.0,WNW,12.7,21.9,N/A,,Clear,300,2013-02-18 02:54:00
10:54 PM,26.1,9.0,49,30.18,10.0,WNW,17.3,26.5,N/A,,Clear,300,2013-02-18 03:54:00
11:54 PM,26.1,9.0,49,30.19,10.0,WNW,13.8,26.5,N/A,,Clear,290,2013-02-18 04:54:00